When you browse on this site, cookies collect data to enhance your experience and personalize the content and advertising you see.
Visit our Privacy Policy to learn more. By continuing to use the site, you agree to this use of cookies and data.
  • In Czech Republic
  • List of Countries
  • For 7 days
  • Water Temperature
  • Weather Map
  • Weather Widgets
  • user-avatar
    Login

    Hourly Weather Corozal

    Today, 17 October, Thursday

    Time Temperature Precipitation Wind Pressure Humidity
    00:00 +27°C° 0 mm 1 mps 758 mmHg 94%
    01:00 +27°C° 0 mm 2 mps 758 mmHg 94%
    02:00 +27°C° 0 mm 2 mps 757 mmHg 94%
    03:00 +27°C° 0 mm 2 mps 757 mmHg 94%
    04:00 +27°C° 0 mm 2 mps 757 mmHg 94%
    05:00 +27°C° 0 mm 1 mps 757 mmHg 95%
    06:00 +27°C° 0 mm 1 mps 757 mmHg 95%
    07:00 +28°C° 0.1 mm 2 mps 758 mmHg 88%
    08:00 +30°C° 0.1 mm 2 mps 758 mmHg 82%
    09:00 +33°C° 0.1 mm 3 mps 759 mmHg 75%
    10:00 +34°C° 0.2 mm 3 mps 758 mmHg 72%
    11:00 +34°C° 0.2 mm 3 mps 758 mmHg 70%
    12:00 +35°C° 0.2 mm 3 mps 757 mmHg 67%
    13:00 +34°C° 0.1 mm 3 mps 756 mmHg 68%
    14:00 +34°C° 0.1 mm 3 mps 756 mmHg 70%
    15:00 +34°C° 0.1 mm 3 mps 755 mmHg 71%
    16:00 +31°C° 0 mm 3 mps 755 mmHg 77%
    17:00 +30°C° 0 mm 3 mps 755 mmHg 83%
    18:00 +28°C° 0 mm 3 mps 756 mmHg 88%
    19:00 +28°C° 0 mm 2 mps 756 mmHg 90%
    20:00 +28°C° 0 mm 2 mps 757 mmHg 91%
    21:00 +27°C° 0 mm 2 mps 758 mmHg 93%
    22:00 +27°C° 0 mm 2 mps 757 mmHg 94%
    23:00 +27°C° 0 mm 2 mps 757 mmHg 95%

    Tomorrow, 18 October, Friday

    Time Temperature Precipitation Wind Pressure Humidity
    00:00 +27°C° 0 mm 1 mps 757 mmHg 95%
    01:00 +27°C° 0 mm 1 mps 756 mmHg 95%
    02:00 +27°C° 0 mm 2 mps 756 mmHg 96%
    03:00 +27°C° 0 mm 2 mps 756 mmHg 96%
    04:00 +27°C° 0 mm 1 mps 756 mmHg 96%
    05:00 +26°C° 0 mm 1 mps 756 mmHg 96%
    06:00 +26°C° 0 mm 1 mps 756 mmHg 97%
    07:00 +28°C° 0 mm 1 mps 757 mmHg 89%
    08:00 +30°C° 0 mm 1 mps 757 mmHg 82%
    09:00 +32°C° 0 mm 2 mps 758 mmHg 74%
    10:00 +34°C° 0 mm 2 mps 757 mmHg 70%
    11:00 +35°C° 0 mm 2 mps 756 mmHg 65%
    12:00 +36°C° 0 mm 2 mps 756 mmHg 61%
    13:00 +35°C° 0 mm 2 mps 755 mmHg 62%
    14:00 +35°C° 0 mm 2 mps 755 mmHg 64%
    15:00 +35°C° 0 mm 2 mps 754 mmHg 65%
    16:00 +32°C° 0.1 mm 2 mps 754 mmHg 73%
    17:00 +30°C° 0.1 mm 2 mps 755 mmHg 81%
    18:00 +29°C° 0.1 mm 2 mps 755 mmHg 88%
    19:00 +28°C° 0.1 mm 2 mps 755 mmHg 91%
    20:00 +28°C° 0.1 mm 2 mps 756 mmHg 93%
    21:00 +28°C° 0.1 mm 2 mps 756 mmHg 95%
    22:00 +28°C° 0.3 mm 2 mps 756 mmHg 96%
    23:00 +28°C° 0.3 mm 2 mps 756 mmHg 96%

    Day after tomorrow, 19 October, Saturday

    Time Temperature Precipitation Wind Pressure Humidity
    00:00 +27°C° 0.3 mm 2 mps 756 mmHg 97%
    01:00 +27°C° 0.1 mm 1 mps 756 mmHg 97%
    02:00 +27°C° 0.1 mm 1 mps 755 mmHg 97%
    03:00 +27°C° 0.1 mm 1 mps 755 mmHg 97%
    04:00 +27°C° 0 mm 1 mps 755 mmHg 97%
    05:00 +27°C° 0 mm 1 mps 755 mmHg 97%
    06:00 +24°C° 0 mm 0 mps 756 mmHg 97%
    07:00 +28°C° 0 mm 1 mps 756 mmHg 91%
    08:00 +30°C° 0 mm 1 mps 756 mmHg 85%
    09:00 +31°C° 0 mm 1 mps 757 mmHg 79%
    10:00 +33°C° 0.1 mm 1 mps 756 mmHg 72%
    11:00 +34°C° 0.1 mm 1 mps 756 mmHg 64%
    12:00 +37°C° 0.1 mm 2 mps 756 mmHg 57%
    13:00 +36°C° 0 mm 2 mps 755 mmHg 59%
    14:00 +36°C° 0 mm 2 mps 754 mmHg 60%
    15:00 +35°C° 0 mm 2 mps 754 mmHg 62%
    16:00 +32°C° 0 mm 2 mps 754 mmHg 70%
    17:00 +31°C° 0 mm 2 mps 754 mmHg 79%
    18:00 +29°C° 0 mm 2 mps 755 mmHg 87%
    19:00 +28°C° 0 mm 2 mps 755 mmHg 90%
    20:00 +28°C° 0 mm 2 mps 756 mmHg 93%
    21:00 +28°C° 0 mm 2 mps 756 mmHg 95%
    22:00 +28°C° 0 mm 2 mps 756 mmHg 95%
    23:00 +28°C° 0 mm 2 mps 756 mmHg 96%

    20 October, Sunday

    Time Temperature Precipitation Wind Pressure Humidity
    00:00 +27°C° 0 mm 2 mps 756 mmHg 96%
    01:00 +27°C° 0 mm 2 mps 756 mmHg 96%
    02:00 +27°C° 0 mm 2 mps 756 mmHg 96%
    03:00 +27°C° 0 mm 2 mps 756 mmHg 96%
    04:00 +27°C° 0 mm 2 mps 756 mmHg 96%
    05:00 +27°C° 0 mm 2 mps 756 mmHg 95%
    06:00 +28°C° 0 mm 2 mps 756 mmHg 95%
    07:00 +29°C° 0 mm 2 mps 757 mmHg 88%
    08:00 +31°C° 0 mm 3 mps 757 mmHg 82%
    09:00 +33°C° 0 mm 3 mps 758 mmHg 75%
    10:00 +34°C° 0 mm 4 mps 757 mmHg 72%
    11:00 +34°C° 0 mm 4 mps 757 mmHg 69%
    12:00 +35°C° 0 mm 4 mps 756 mmHg 66%
    13:00 +34°C° 0 mm 4 mps 756 mmHg 67%
    14:00 +34°C° 0 mm 4 mps 755 mmHg 69%
    15:00 +34°C° 0 mm 4 mps 755 mmHg 70%
    16:00 +31°C° 0 mm 3 mps 755 mmHg 76%
    17:00 +30°C° 0 mm 3 mps 756 mmHg 81%
    18:00 +28°C° 0 mm 3 mps 756 mmHg 87%
    19:00 +28°C° 0 mm 2 mps 757 mmHg 89%
    20:00 +28°C° 0 mm 2 mps 757 mmHg 91%
    21:00 +27°C° 0 mm 2 mps 758 mmHg 93%
    22:00 +27°C° 0 mm 2 mps 757 mmHg 93%
    23:00 +27°C° 0 mm 2 mps 757 mmHg 93%

    21 October, Monday

    Time Temperature Precipitation Wind Pressure Humidity
    00:00 +27°C° 0 mm 2 mps 757 mmHg 92%
    01:00 +27°C° 0 mm 2 mps 757 mmHg 93%
    02:00 +27°C° 0 mm 2 mps 757 mmHg 93%
    03:00 +27°C° 0 mm 2 mps 757 mmHg 94%
    04:00 +27°C° 0 mm 2 mps 757 mmHg 94%
    05:00 +27°C° 0 mm 2 mps 757 mmHg 93%
    06:00 +27°C° 0 mm 2 mps 757 mmHg 93%
    07:00 +29°C° 0.1 mm 3 mps 758 mmHg 85%
    08:00 +31°C° 0.1 mm 3 mps 758 mmHg 78%
    09:00 +33°C° 0.1 mm 4 mps 759 mmHg 71%
    10:00 +34°C° 0.1 mm 4 mps 758 mmHg 69%
    11:00 +34°C° 0.1 mm 4 mps 758 mmHg 67%
    12:00 +35°C° 0.1 mm 4 mps 758 mmHg 64%
    13:00 +34°C° 0.1 mm 4 mps 757 mmHg 65%
    14:00 +34°C° 0.1 mm 4 mps 757 mmHg 66%
    15:00 +34°C° 0.1 mm 4 mps 756 mmHg 67%
    16:00 +31°C° 0 mm 3 mps 756 mmHg 74%
    17:00 +30°C° 0 mm 3 mps 757 mmHg 80%
    18:00 +28°C° 0 mm 2 mps 757 mmHg 87%
    19:00 +28°C° 0 mm 2 mps 758 mmHg 89%
    20:00 +28°C° 0 mm 2 mps 758 mmHg 90%
    21:00 +27°C° 0 mm 2 mps 759 mmHg 92%
    22:00 +27°C° 0 mm 2 mps 759 mmHg 93%
    23:00 +27°C° 0 mm 2 mps 759 mmHg 93%

    22 October, Tuesday

    Time Temperature Precipitation Wind Pressure Humidity
    00:00 +27°C° 0 mm 2 mps 759 mmHg 93%
    01:00 +27°C° 0 mm 2 mps 758 mmHg 94%
    02:00 +27°C° 0 mm 2 mps 758 mmHg 95%
    03:00 +27°C° 0 mm 2 mps 758 mmHg 95%
    04:00 +27°C° 0 mm 2 mps 758 mmHg 95%
    05:00 +27°C° 0 mm 2 mps 758 mmHg 95%
    06:00 +27°C° 0 mm 2 mps 758 mmHg 95%
    07:00 +28°C° 0 mm 2 mps 759 mmHg 88%
    08:00 +30°C° 0 mm 2 mps 759 mmHg 80%
    09:00 +31°C° 0 mm 3 mps 759 mmHg 73%
    10:00 +33°C° 0.1 mm 3 mps 759 mmHg 69%
    11:00 +34°C° 0.1 mm 3 mps 758 mmHg 65%
    12:00 +35°C° 0.1 mm 3 mps 758 mmHg 62%
    13:00 +34°C° 0 mm 3 mps 758 mmHg 61%
    14:00 +34°C° 0 mm 3 mps 757 mmHg 61%
    15:00 +34°C° 0 mm 3 mps 756 mmHg 60%
    16:00 +31°C° 0 mm 3 mps 757 mmHg 67%
    17:00 +29°C° 0 mm 3 mps 757 mmHg 73%
    18:00 +28°C° 0 mm 3 mps 758 mmHg 80%
    19:00 +27°C° 0 mm 3 mps 758 mmHg 83%
    20:00 +27°C° 0 mm 2 mps 758 mmHg 86%
    21:00 +26°C° 0 mm 2 mps 759 mmHg 89%
    22:00 +26°C° 0 mm 2 mps 759 mmHg 90%
    23:00 +26°C° 0 mm 2 mps 758 mmHg 91%
    Show more